| time (UTC) | temp F | wind direction | speed knots | gust knots | rain 1hr in | rain 24hr in | rain mn in | humidity % | barometer mb |
| 20260505034915 | 45 | 0 | 2.6 | 4.3 | 0.00 | 0.18 | 0.18 | 91 | 995.9 |
| 20260505034416 | 45 | 326 | 1.7 | 4.3 | 0.00 | 0.18 | 0.18 | 91 | 995.9 |
| 20260505033914 | 45 | 358 | 1.7 | 4.3 | 0.00 | 0.18 | 0.18 | 91 | 995.9 |
| 20260505033416 | 45 | 300 | 0.9 | 4.3 | 0.00 | 0.18 | 0.18 | 91 | 995.9 |
| 20260505032913 | 45 | 343 | 1.7 | 3.5 | 0.00 | 0.18 | 0.18 | 91 | 995.9 |
| 20260505032640 | 45 | 348 | 1.7 | 3.5 | 0.00 | 0.18 | 0.18 | 91 | 995.9 |
| 20260505031913 | 45 | 331 | 0.9 | 3.5 | 0.00 | 0.18 | 0.18 | 91 | 996.0 |
| 20260505031412 | 45 | 353 | 1.7 | 3.5 | 0.00 | 0.18 | 0.18 | 92 | 996.0 |
| 20260505030913 | 45 | 11 | 0.9 | 2.6 | 0.00 | 0.18 | 0.18 | 92 | 996.0 |
| 20260505030412 | 45 | 2 | 0.9 | 2.6 | 0.00 | 0.18 | 0.18 | 92 | 996.2 |
| 20260505025912 | 45 | 350 | 0.9 | 3.5 | 0.00 | 0.18 | 0.18 | 92 | 996.2 |
| 20260505025410 | 45 | 330 | 1.7 | 3.5 | 0.00 | 0.18 | 0.18 | 92 | 996.2 |
| 20260505024911 | 45 | 344 | 0.0 | 5.2 | 0.01 | 0.18 | 0.18 | 92 | 996.3 |
| 20260505024412 | 45 | 21 | 2.6 | 5.2 | 0.01 | 0.18 | 0.18 | 93 | 996.4 |
| 20260505024157 | 45 | 272 | 1.7 | 3.5 | 0.01 | 0.18 | 0.18 | 93 | 996.7 |
| 20260505023634 | 45 | 305 | 0.9 | 3.5 | 0.01 | 0.18 | 0.18 | 92 | 996.2 |
| 20260505022904 | 45 | 336 | 1.7 | 3.5 | 0.01 | 0.18 | 0.18 | 92 | 996.3 |
| 20260505022406 | 45 | 7 | 1.7 | 3.5 | 0.01 | 0.18 | 0.18 | 93 | 996.2 |
| 20260505021906 | 45 | 334 | 1.7 | 3.5 | 0.01 | 0.18 | 0.18 | 92 | 996.3 |
| 20260505021403 | 45 | 358 | 1.7 | 3.5 | 0.02 | 0.18 | 0.18 | 92 | 996.0 |
| 20260505020903 | 45 | 348 | 2.6 | 3.5 | 0.02 | 0.18 | 0.18 | 92 | 996.0 |
| 20260505020401 | 45 | 348 | 2.6 | 5.2 | 0.02 | 0.18 | 0.18 | 92 | 996.0 |
| 20260505015901 | 45 | 345 | 2.6 | 5.2 | 0.02 | 0.16 | 0.18 | 93 | 996.3 |
| 20260505015629 | 45 | 337 | 1.7 | 3.5 | 0.03 | 0.16 | 0.17 | 93 | 996.1 |
| 20260505014859 | 45 | 351 | 0.9 | 3.5 | 0.02 | 0.16 | 0.17 | 93 | 995.8 |
| 20260505014358 | 45 | 333 | 1.7 | 4.3 | 0.03 | 0.16 | 0.17 | 93 | 996.1 |
| 20260505014135 | 45 | 338 | 1.7 | 5.2 | 0.04 | 0.16 | 0.17 | 93 | 995.6 |
| 20260505013357 | 45 | 337 | 1.7 | 5.2 | 0.04 | 0.16 | 0.17 | 93 | 996.2 |
| 20260505012855 | 45 | 340 | 2.6 | 5.2 | 0.05 | 0.16 | 0.17 | 93 | 996.1 |
| 20260505012352 | 45 | 0 | 2.6 | 4.3 | 0.05 | 0.16 | 0.17 | 93 | 995.7 |
| 20260505011853 | 45 | 347 | 1.7 | 3.5 | 0.06 | 0.16 | 0.17 | 92 | 995.4 |
| 20260505011353 | 45 | 358 | 1.7 | 4.3 | 0.05 | 0.16 | 0.16 | 92 | 995.2 |
| 20260505010901 | 45 | 28 | 2.6 | 7.8 | 0.06 | 0.16 | 0.16 | 92 | 995.4 |
| 20260505010111 | 45 | 322 | 3.5 | 10.4 | 0.09 | 0.08 | 0.16 | 92 | 995.9 |
| 20260505005350 | 44 | 358 | 1.7 | 10.4 | 0.10 | 0.08 | 0.15 | 92 | 995.8 |
| 20260505004847 | 45 | 348 | 3.5 | 9.6 | 0.13 | 0.08 | 0.15 | 91 | 995.6 |
| 20260505004346 | 45 | 333 | 5.2 | 9.6 | 0.12 | 0.08 | 0.14 | 91 | 995.5 |
| 20260505003850 | 45 | 337 | 5.2 | 9.6 | 0.11 | 0.08 | 0.13 | 91 | 995.4 |
| 20260505003349 | 45 | 336 | 4.3 | 11.3 | 0.11 | 0.09 | 0.13 | 91 | 995.3 |
| 20260505002846 | 46 | 333 | 4.3 | 11.3 | 0.10 | 0.09 | 0.12 | 92 | 995.2 |
| 20260505002341 | 46 | 348 | 3.5 | 7.8 | 0.10 | 0.11 | 0.12 | 92 | 994.9 |
| 20260505001841 | 46 | 0 | 3.5 | 8.7 | 0.09 | 0.13 | 0.11 | 92 | 995.1 |
| 20260505001336 | 46 | 337 | 3.5 | 8.7 | 0.10 | 0.15 | 0.11 | 91 | 995.1 |
| 20260505000849 | 46 | 24 | 3.5 | 6.1 | 0.09 | 0.17 | 0.10 | 91 | 994.9 |
| 20260505000334 | 46 | 345 | 3.5 | 5.2 | 0.08 | 0.18 | 0.09 | 90 | 994.9 |
| 20260504235604 | 46 | 334 | 1.7 | 7.8 | 0.04 | 0.14 | 0.05 | 89 | 994.6 |
| 20260504234833 | 46 | 1 | 1.7 | 7.8 | 0.01 | 0.17 | 0.02 | 88 | 994.5 |
| 20260504234336 | 46 | 334 | 2.6 | 4.3 | 0.01 | 0.21 | 0.02 | 87 | 994.1 |
| 20260504233834 | 46 | 300 | 1.7 | 5.2 | 0.01 | 0.24 | 0.02 | 86 | 993.8 |
| 20260504233334 | 47 | 79 | 0.9 | 7.8 | 0.01 | 0.24 | 0.02 | 85 | 993.5 |
| 20260504232833 | 47 | 1 | 2.6 | 8.7 | 0.01 | 0.24 | 0.02 | 84 | 993.4 |
| 20260504232335 | 48 | 62 | 1.7 | 9.6 | 0.01 | 0.24 | 0.02 | 82 | 993.4 |
| 20260504232058 | 48 | 37 | 3.5 | 11.3 | 0.01 | 0.24 | 0.02 | 80 | 993.3 |
| 20260504231409 | 49 | 234 | 3.5 | 11.3 | 0.00 | 0.24 | 0.01 | 77 | 993.7 |
| 20260504230830 | 50 | 9 | 3.5 | 8.7 | 0.00 | 0.24 | 0.01 | 73 | 993.6 |
| 20260504230332 | 50 | 290 | 3.5 | 6.1 | 0.00 | 0.24 | 0.01 | 71 | 994.0 |
| 20260504225829 | 50 | 355 | 3.5 | 10.4 | 0.00 | 0.24 | 0.01 | 67 | 993.9 |
| 20260504225356 | 51 | 351 | 1.7 | 10.4 | 0.00 | 0.24 | 0.01 | 63 | 993.5 |
| 20260504225104 | 53 | 327 | 4.3 | 9.6 | 0.00 | 0.24 | 0.01 | 58 | 992.8 |
| 20260504224323 | 56 | 27 | 4.3 | 9.6 | 0.00 | 0.24 | 0.01 | 53 | 992.2 |
| 20260504223822 | 59 | 21 | 3.5 | 8.7 | 0.00 | 0.24 | 0.01 | 46 | 992.5 |
| 20260504223552 | 66 | 15 | 2.6 | 13.9 | 0.00 | 0.24 | 0.01 | 35 | 992.0 |
| 20260504223128 | 72 | 357 | 6.1 | 16.5 | 0.00 | 0.24 | 0.01 | 33 | 991.9 |
| 20260504223118 | 73 | 257 | 10.4 | 20.0 | 0.00 | 0.24 | 0.01 | 33 | 991.1 |
| 20260504221817 | 73 | 295 | 12.2 | 23.5 | 0.00 | 0.24 | 0.01 | 33 | 991.0 |
| 20260504221349 | 73 | 245 | 13.0 | 24.3 | 0.00 | 0.24 | 0.01 | 33 | 990.9 |
| 20260504220815 | 73 | 254 | 10.4 | 27.8 | 0.00 | 0.24 | 0.01 | 33 | 991.0 |
| 20260504220314 | 73 | 268 | 12.2 | 27.8 | 0.00 | 0.24 | 0.01 | 33 | 991.1 |
| 20260504215809 | 73 | 275 | 11.3 | 25.2 | 0.00 | 0.24 | 0.01 | 33 | 991.0 |
| 20260504215308 | 73 | 238 | 9.6 | 25.2 | 0.00 | 0.24 | 0.01 | 33 | 991.0 |
| 20260504214812 | 73 | 274 | 11.3 | 22.6 | 0.00 | 0.24 | 0.01 | 33 | 990.8 |
| 20260504214307 | 73 | 268 | 9.6 | 16.5 | 0.00 | 0.24 | 0.01 | 33 | 990.7 |
| 20260504213807 | 73 | 286 | 9.6 | 16.5 | 0.00 | 0.24 | 0.01 | 33 | 990.7 |
| 20260504213307 | 73 | 283 | 9.6 | 16.5 | 0.00 | 0.24 | 0.01 | 33 | 990.7 |
| 20260504212807 | 73 | 252 | 8.7 | 16.5 | 0.00 | 0.24 | 0.01 | 34 | 990.7 |
| 20260504212311 | 73 | 264 | 7.0 | 14.8 | 0.00 | 0.24 | 0.01 | 34 | 990.7 |
| 20260504211807 | 73 | 271 | 9.6 | 15.6 | 0.00 | 0.24 | 0.01 | 33 | 990.8 |
| 20260504211308 | 73 | 288 | 8.7 | 16.5 | 0.00 | 0.24 | 0.01 | 32 | 990.7 |
| 20260504210809 | 73 | 281 | 7.8 | 16.5 | 0.00 | 0.24 | 0.01 | 32 | 990.7 |
| 20260504210306 | 73 | 251 | 8.7 | 19.1 | 0.00 | 0.24 | 0.01 | 32 | 990.7 |
| 20260504205808 | 73 | 244 | 9.6 | 26.9 | 0.00 | 0.24 | 0.01 | 32 | 990.7 |
| 20260504205305 | 74 | 247 | 11.3 | 33.0 | 0.00 | 0.24 | 0.01 | 32 | 990.6 |
| 20260504204804 | 74 | 282 | 13.9 | 33.0 | 0.00 | 0.24 | 0.01 | 31 | 990.5 |
| 20260504204533 | 74 | 254 | 9.6 | 23.5 | 0.00 | 0.24 | 0.01 | 30 | 990.7 |
| 20260504203804 | 74 | 275 | 13.0 | 20.9 | 0.00 | 0.24 | 0.01 | 29 | 990.5 |
| 20260504203307 | 75 | 279 | 12.2 | 24.3 | 0.00 | 0.24 | 0.01 | 29 | 990.4 |
| 20260504202802 | 75 | 268 | 11.3 | 24.3 | 0.00 | 0.24 | 0.01 | 29 | 990.5 |
| 20260504201803 | 75 | 262 | 11.3 | 24.3 | 0.00 | 0.24 | 0.01 | 28 | 990.5 |
| 20260504201302 | 76 | 268 | 13.0 | 24.3 | 0.00 | 0.24 | 0.01 | 27 | 990.5 |
| 20260504200802 | 76 | 272 | 13.0 | 23.5 | 0.00 | 0.24 | 0.01 | 27 | 990.5 |
| 20260504200303 | 76 | 234 | 11.3 | 23.5 | 0.00 | 0.24 | 0.01 | 26 | 990.5 |
| 20260504195802 | 77 | 272 | 13.9 | 23.5 | 0.00 | 0.24 | 0.01 | 26 | 990.5 |
| 20260504195526 | 77 | 272 | 11.3 | 20.9 | 0.00 | 0.24 | 0.01 | 26 | 990.5 |
| 20260504194808 | 77 | 241 | 11.3 | 23.5 | 0.00 | 0.24 | 0.01 | 27 | 990.4 |
| 20260504194304 | 77 | 199 | 9.6 | 30.4 | 0.00 | 0.24 | 0.01 | 27 | 990.5 |
| 20260504193802 | 77 | 252 | 13.0 | 30.4 | 0.00 | 0.24 | 0.01 | 26 | 990.5 |
| 20260504193305 | 78 | 228 | 13.0 | 29.5 | 0.00 | 0.24 | 0.01 | 26 | 990.6 |
| 20260504193028 | 77 | 275 | 15.6 | 29.5 | 0.00 | 0.24 | 0.01 | 25 | 990.5 |
| 20260504192300 | 77 | 221 | 14.8 | 26.9 | 0.00 | 0.24 | 0.01 | 25 | 990.7 |
| 20260504191757 | 77 | 258 | 13.9 | 25.2 | 0.00 | 0.24 | 0.01 | 24 | 990.8 |
| 20260504191258 | 78 | 238 | 13.0 | 23.5 | 0.00 | 0.24 | 0.01 | 25 | 990.5 |
| 20260504190826 | 78 | 220 | 7.0 | 17.4 | 0.00 | 0.24 | 0.01 | 27 | 990.8 |
| 20260504190818 | 78 | 272 | 11.3 | 19.1 | 0.00 | 0.24 | 0.01 | 26 | 990.8 |
| 20260504185730 | 77 | 261 | 11.3 | 19.1 | 0.00 | 0.24 | 0.01 | 27 | 990.8 |
| 20260504185502 | 76 | 257 | 7.8 | 26.9 | 0.00 | 0.24 | 0.01 | 28 | 991.1 |
| 20260504184726 | 76 | 207 | 14.8 | 26.9 | 0.00 | 0.24 | 0.01 | 27 | 991.2 |
| 20260504183723 | 76 | 237 | 11.3 | 25.2 | 0.00 | 0.24 | 0.01 | 28 | 991.3 |
| 20260504183225 | 76 | 257 | 16.5 | 24.3 | 0.00 | 0.24 | 0.01 | 28 | 991.4 |
| 20260504182718 | 76 | 276 | 13.0 | 25.2 | 0.00 | 0.24 | 0.01 | 28 | 991.6 |
| 20260504182219 | 76 | 234 | 13.0 | 25.2 | 0.00 | 0.24 | 0.01 | 27 | 991.6 |
| 20260504181716 | 76 | 231 | 13.0 | 25.2 | 0.00 | 0.24 | 0.01 | 27 | 991.5 |
| 20260504181230 | 76 | 282 | 10.4 | 26.1 | 0.00 | 0.24 | 0.01 | 28 | 991.6 |
| 20260504180711 | 76 | 248 | 9.6 | 26.1 | 0.00 | 0.24 | 0.01 | 30 | 991.5 |
| 20260504180217 | 74 | 250 | 9.6 | 20.9 | 0.00 | 0.24 | 0.01 | 30 | 991.8 |
| 20260504175559 | 74 | 233 | 10.4 | 23.5 | 0.00 | 0.24 | 0.01 | 30 | 991.7 |
| 20260504175100 | 74 | 255 | 13.9 | 26.9 | 0.00 | 0.24 | 0.01 | 29 | 991.9 |
| 20260504174933 | 74 | 244 | 13.9 | 26.9 | 0.00 | 0.24 | 0.01 | 29 | 992.2 |
| 20260504174057 | 74 | 240 | 10.4 | 24.3 | 0.00 | 0.24 | 0.01 | 30 | 992.4 |
| 20260504173830 | 74 | 219 | 13.0 | 24.3 | 0.00 | 0.24 | 0.01 | 29 | 992.2 |
| 20260504173058 | 74 | 245 | 13.0 | 24.3 | 0.00 | 0.24 | 0.01 | 28 | 992.2 |
| 20260504172557 | 74 | 258 | 12.2 | 26.1 | 0.00 | 0.24 | 0.01 | 30 | 992.4 |
| 20260504172057 | 74 | 264 | 17.4 | 26.1 | 0.00 | 0.24 | 0.01 | 30 | 992.6 |
| 20260504171557 | 74 | 275 | 10.4 | 16.5 | 0.00 | 0.24 | 0.01 | 32 | 992.6 |
| 20260504171058 | 0 | 240 | 11.3 | 0.0 | 0.00 | 0.00 | 0.00 | 992.6 | |
| 20260504160304 | 70 | 265 | 7.8 | 17.4 | 0.00 | 0.25 | 0.01 | 41 | 994.0 |
| 20260504150801 | 64 | 221 | 9.6 | 13.9 | 0.00 | 0.25 | 0.01 | 57 | 995.0 |
| 20260504150304 | 63 | 221 | 7.8 | 12.2 | 0.00 | 0.25 | 0.01 | 60 | 995.2 |
| 20260504141249 | 60 | 220 | 5.2 | 11.3 | 0.00 | 0.25 | 0.01 | 63 | 995.7 |
| 20260504140750 | 60 | 223 | 7.0 | 11.3 | 0.00 | 0.25 | 0.01 | 66 | 995.8 |
| 20260504140249 | 59 | 171 | 2.6 | 11.3 | 0.00 | 0.25 | 0.01 | 67 | 995.9 |
| 20260504130734 | 53 | 231 | 4.3 | 9.6 | 0.00 | 0.25 | 0.01 | 82 | 996.8 |
| 20260504130237 | 52 | 226 | 6.1 | 9.6 | 0.00 | 0.25 | 0.01 | 84 | 996.8 |
| 20260504120238 | 47 | 258 | 4.3 | 9.6 | 0.00 | 0.25 | 0.01 | 93 | 997.3 |
| 20260504110639 | 43 | 213 | 4.3 | 8.7 | 0.00 | 0.25 | 0.01 | 95 | 997.6 |
| 20260504110141 | 43 | 210 | 5.2 | 8.7 | 0.00 | 0.25 | 0.01 | 95 | 997.6 |
| 20260504100135 | 43 | 230 | 3.5 | 6.1 | 0.00 | 0.25 | 0.01 | 95 | 998.4 |
| 20260504081454 | 44 | 228 | 3.5 | 6.1 | 0.01 | 0.24 | 0.01 | 96 | 999.3 |
| 20260504080955 | 44 | 264 | 3.5 | 7.8 | 0.01 | 0.24 | 0.01 | 96 | 999.2 |
| 20260504080453 | 43 | 247 | 3.5 | 7.8 | 0.00 | 0.24 | 0.00 | 96 | 999.5 |
| 20260504050436 | 41 | 224 | 0.0 | 0.9 | 0.00 | 0.24 | 0.00 | 96 | 1000.6 |
| 20260504045935 | 41 | 261 | 0.0 | 0.0 | 0.00 | 0.24 | 0.00 | 96 | 1000.6 |
| 20260504045708 | 41 | 262 | 0.0 | 0.0 | 0.00 | 0.24 | 0.00 | 96 | 1000.7 |
| 20260504044935 | 41 | 276 | 0.0 | 0.0 | 0.00 | 0.24 | 0.00 | 96 | 1000.7 |
| 20260504044435 | 41 | 275 | 0.0 | 0.0 | 0.00 | 0.24 | 0.00 | 96 | 1000.8 |
| 20260504043934 | 41 | 276 | 0.0 | 0.0 | 0.00 | 0.24 | 0.00 | 96 | 1000.8 |
| 20260504043201 | 41 | 329 | 0.0 | 0.9 | 0.00 | 0.24 | 0.00 | 96 | 1000.9 |
| 20260504042434 | 41 | 19 | 0.0 | 3.5 | 0.00 | 0.24 | 0.00 | 96 | 1001.0 |
| 20260504041935 | 41 | 24 | 0.9 | 3.5 | 0.00 | 0.24 | 0.00 | 96 | 1001.0 |
| 20260504041437 | 41 | 326 | 0.9 | 1.7 | 0.00 | 0.24 | 0.00 | 96 | 1000.9 |
| 20260504040933 | 41 | 252 | 0.0 | 0.0 | 0.00 | 0.24 | 0.00 | 96 | 1000.8 |
| 20260504040433 | 42 | 252 | 0.0 | 0.0 | 0.00 | 0.24 | 0.00 | 96 | 1000.9 |
| 20260504040208 | 42 | 290 | 0.0 | 0.9 | 0.00 | 0.24 | 0.24 | 96 | 1001.0 |
| 20260504035434 | 42 | 305 | 0.0 | 0.9 | 0.00 | 0.24 | 0.24 | 96 | 1001.1 |